Location: Fernhill
(41.0167°S, 175.6333°E)
Time: 03:13:36
(UTC+00:00)

Geosat - Pass Details

Date: 08 November 2025
Orbit: 757 x 760 km, 108.0° (Epoch: 15 December)

Event Time Altitude Azimuth Distance (km) Brightness Sun altitude
Rises 08:25:45 0° 150° (SSE) 3,252 7.3 -13.8°
Reaches altitude 10° 08:28:07 10° 144° (SE) 2,319 6.5 -14.1°
Maximum altitude 08:33:03 53° 68° (ENE) 944 4.1 -14.8°
Drops below altitude 10° 08:37:55 10° 351° (N) 2,290 6.2 -15.6°
Sets 08:40:14 0° 346° (NNW) 3,207 7.0 -15.9°
